Location: Milo
(50.5667°N, 112.8833°W)
Time: 20:33:35
(UTC+00:00)

ISS - Pass Details

Date: 03 December 2021
Orbit: 413 x 422 km, 51.6° (Epoch: 25 January)

Event Time Altitude Azimuth Distance (km) Brightness Sun altitude
Rises 00:29:16 0° 279° (W) 2,388 1.1 -9.1°
Reaches altitude 10° 00:31:23 10° 281° (W) 1,520 0.0 -9.4°
Maximum altitude 00:34:47 78° 8° (N) 440 -3.8 -9.9°
Enters shadow 00:37:47 13° 95° (E) 1,349 -1.7 -10.4°
